TimeEST,TemperatureF,Dew PointF,Humidity,Sea Level PressureIn,VisibilityMPH,Wind Direction,Wind SpeedMPH,Gust SpeedMPH,PrecipitationIn,Events,Conditions,WindDirDegrees,DateUTC
12:14 AM,28.4,21.2,74,30.02,10.0,NW,10.4,16.1,N/A,,Overcast,320,2013-02-06 05:14:00
12:35 AM,28.2,20.1,72,30.03,10.0,NNW,6.9,10.4,N/A,,Overcast,330,2013-02-06 05:35:00
12:54 AM,28.2,19.2,69,30.04,10.0,NNW,4.6,-,N/A,,Overcast,330,2013-02-06 05:54:00
1:15 AM,28.0,19.9,72,30.04,10.0,NNW,4.6,-,N/A,,Overcast,330,2013-02-06 06:15:00
1:35 AM,28.2,19.4,70,30.05,10.0,NW,5.8,-,N/A,,Overcast,320,2013-02-06 06:35:00
2:15 AM,28.2,17.8,65,30.08,10.0,NW,11.5,16.1,N/A,,Overcast,320,2013-02-06 07:15:00
2:34 AM,28.0,16.7,62,30.08,10.0,NW,6.9,-,N/A,,Overcast,320,2013-02-06 07:34:00
2:55 AM,28.0,17.8,65,30.08,10.0,NW,5.8,-,N/A,,Overcast,320,2013-02-06 07:55:00
3:14 AM,28.0,17.4,64,30.10,10.0,WNW,5.8,-,N/A,,Overcast,300,2013-02-06 08:14:00
3:35 AM,28.0,16.9,63,30.10,10.0,NW,4.6,-,N/A,,Overcast,310,2013-02-06 08:35:00
3:55 AM,28.0,16.9,63,30.10,10.0,NW,5.8,-,N/A,,Overcast,310,2013-02-06 08:55:00
4:15 AM,26.8,18.5,71,30.11,10.0,Calm,Calm,-,N/A,,Overcast,0,2013-02-06 09:15:00
4:35 AM,25.7,19.9,79,30.12,10.0,Calm,Calm,-,N/A,,Overcast,0,2013-02-06 09:35:00
4:54 AM,24.8,19.8,81,30.12,10.0,East,3.5,-,N/A,,Overcast,90,2013-02-06 09:54:00
5:15 AM,24.6,19.4,81,30.12,10.0,Calm,Calm,-,N/A,,Overcast,0,2013-02-06 10:15:00
5:35 AM,23.2,19.6,86,30.13,10.0,Calm,Calm,-,N/A,,Overcast,0,2013-02-06 10:35:00
5:54 AM,21.7,19.2,90,30.14,10.0,Calm,Calm,-,N/A,,Overcast,0,2013-02-06 10:54:00
6:15 AM,19.8,18.1,93,30.14,7.0,Calm,Calm,-,N/A,,Mostly Cloudy,0,2013-02-06 11:15:00
6:35 AM,18.0,16.7,95,30.15,7.0,Calm,Calm,-,N/A,,Scattered Clouds,0,2013-02-06 11:35:00
6:55 AM,17.4,16.2,95,30.16,5.0,Calm,Calm,-,N/A,,Clear,0,2013-02-06 11:55:00
7:15 AM,14.5,13.1,94,30.19,2.5,Calm,Calm,-,N/A,,Clear,0,2013-02-06 12:15:00
7:34 AM,14.7,13.1,93,30.19,3.0,Calm,Calm,-,N/A,,Scattered Clouds,0,2013-02-06 12:34:00
7:55 AM,12.2,10.2,92,30.19,1.5,Calm,Calm,-,N/A,,Mostly Cloudy,0,2013-02-06 12:55:00
8:15 AM,14.0,12.4,93,30.19,4.0,Calm,Calm,-,N/A,,Mostly Cloudy,0,2013-02-06 13:15:00
8:34 AM,19.0,18.0,96,30.19,7.0,Calm,Calm,-,N/A,,Scattered Clouds,0,2013-02-06 13:34:00
8:55 AM,21.4,20.1,95,30.19,10.0,SSE,3.5,-,N/A,,Mostly Cloudy,150,2013-02-06 13:55:00
9:15 AM,24.3,18.9,80,30.20,10.0,SSE,5.8,-,N/A,,Overcast,160,2013-02-06 14:15:00
9:35 AM,24.6,18.0,76,30.21,10.0,South,4.6,-,N/A,,Mostly Cloudy,170,2013-02-06 14:35:00
10:15 AM,26.8,17.6,68,30.23,10.0,South,5.8,-,N/A,,Scattered Clouds,170,2013-02-06 15:15:00
10:35 AM,28.9,17.4,62,30.23,10.0,SSE,5.8,-,N/A,,Mostly Cloudy,160,2013-02-06 15:35:00
10:55 AM,30.0,17.1,59,30.22,10.0,SSE,5.8,-,N/A,,Mostly Cloudy,150,2013-02-06 15:55:00
11:35 AM,30.9,16.7,56,30.24,10.0,SW,4.6,-,N/A,,Clear,220,2013-02-06 16:35:00
11:55 AM,31.3,16.5,54,30.24,10.0,SSW,4.6,-,N/A,,Clear,200,2013-02-06 16:55:00
12:14 PM,32.0,18.0,56,30.24,10.0,WSW,4.6,-,N/A,,Clear,250,2013-02-06 17:14:00
12:34 PM,32.0,18.0,56,30.24,10.0,WSW,8.1,-,N/A,,Clear,240,2013-02-06 17:34:00
12:54 PM,32.0,18.5,58,30.23,10.0,Calm,Calm,-,N/A,,Clear,0,2013-02-06 17:54:00
1:15 PM,32.0,19.6,60,30.23,10.0,WSW,8.1,-,N/A,,Clear,250,2013-02-06 18:15:00
1:35 PM,32.0,19.9,61,30.22,10.0,West,6.9,-,N/A,,Clear,260,2013-02-06 18:35:00
1:55 PM,32.2,18.7,58,30.21,10.0,Calm,Calm,-,N/A,,Clear,0,2013-02-06 18:55:00
2:15 PM,33.6,19.2,56,30.20,10.0,SE,4.6,-,N/A,,Clear,140,2013-02-06 19:15:00
2:34 PM,33.3,19.9,58,30.21,10.0,West,5.8,-,N/A,,Clear,260,2013-02-06 19:34:00
2:55 PM,32.9,16.5,51,30.21,10.0,SW,8.1,-,N/A,,Clear,220,2013-02-06 19:55:00
3:14 PM,32.7,16.9,52,30.20,10.0,South,5.8,-,N/A,,Clear,190,2013-02-06 20:14:00
3:34 PM,32.9,16.9,52,30.20,10.0,South,8.1,-,N/A,,Clear,180,2013-02-06 20:34:00
3:55 PM,32.4,16.9,53,30.20,10.0,SE,8.1,-,N/A,,Clear,140,2013-02-06 20:55:00
4:15 PM,32.9,19.6,58,30.21,10.0,WSW,3.5,-,N/A,,Clear,240,2013-02-06 21:15:00
4:35 PM,32.7,19.8,59,30.20,10.0,Calm,Calm,-,N/A,,Clear,0,2013-02-06 21:35:00
4:55 PM,32.5,16.7,52,30.19,10.0,South,5.8,-,N/A,,Clear,170,2013-02-06 21:55:00
5:15 PM,32.4,16.9,53,30.19,10.0,SSE,4.6,-,N/A,,Clear,150,2013-02-06 22:15:00
5:35 PM,32.0,17.1,54,30.21,10.0,SSW,4.6,-,N/A,,Scattered Clouds,200,2013-02-06 22:35:00
5:55 PM,31.3,18.3,59,30.21,10.0,Calm,Calm,-,N/A,,Mostly Cloudy,0,2013-02-06 22:55:00
6:15 PM,30.9,18.5,60,30.22,10.0,Calm,Calm,-,N/A,,Overcast,0,2013-02-06 23:15:00
6:35 PM,31.3,18.7,60,30.21,10.0,SE,3.5,-,N/A,,Overcast,140,2013-02-06 23:35:00
6:55 PM,31.3,19.6,62,30.20,10.0,SE,3.5,-,N/A,,Overcast,130,2013-02-06 23:55:00
7:14 PM,31.1,20.7,65,30.22,10.0,South,3.5,-,N/A,,Overcast,180,2013-02-07 00:14:00
7:35 PM,30.6,20.3,66,30.20,10.0,Calm,Calm,-,N/A,,Scattered Clouds,0,2013-02-07 00:35:00
7:55 PM,30.2,20.3,67,30.20,10.0,SSE,3.5,-,N/A,,Clear,150,2013-02-07 00:55:00
8:15 PM,30.2,20.3,67,30.19,10.0,SE,4.6,-,N/A,,Clear,140,2013-02-07 01:15:00
8:35 PM,30.2,20.5,67,30.17,10.0,SSE,6.9,-,N/A,,Scattered Clouds,150,2013-02-07 01:35:00
8:54 PM,30.4,20.7,67,30.17,10.0,SSE,5.8,-,N/A,,Scattered Clouds,150,2013-02-07 01:54:00
9:15 PM,30.7,20.8,67,30.16,10.0,SE,5.8,-,N/A,,Overcast,140,2013-02-07 02:15:00
9:35 PM,30.7,21.0,67,30.17,10.0,SE,5.8,-,N/A,,Overcast,140,2013-02-07 02:35:00
9:55 PM,30.7,21.2,68,30.16,10.0,SE,5.8,-,N/A,,Overcast,140,2013-02-07 02:55:00
10:15 PM,30.6,21.7,70,30.17,10.0,SE,4.6,-,N/A,,Overcast,140,2013-02-07 03:15:00
10:35 PM,30.6,22.1,71,30.17,10.0,SE,4.6,-,N/A,,Overcast,140,2013-02-07 03:35:00
10:54 PM,30.6,22.3,71,30.18,10.0,Calm,Calm,-,N/A,,Overcast,0,2013-02-07 03:54:00
11:15 PM,30.2,22.5,73,30.18,7.0,Calm,Calm,-,N/A,,Overcast,0,2013-02-07 04:15:00
11:35 PM,30.2,22.6,73,30.17,7.0,ESE,4.6,-,N/A,,Overcast,120,2013-02-07 04:35:00
11:55 PM,30.0,22.6,74,30.16,7.0,ESE,3.5,-,N/A,,Overcast,120,2013-02-07 04:55:00